[[{"header":{"parameterUnit":"m.s-1","parameterCategory":1,"la1":30.2991,"la2":30.254,"lo1":-89.0895,"lo2":-89.0444,"dy":0.0017,"dx":0.0017,"nx":28,"ny":28,"refTime":"2025-02-13T09:00:00:Z","depth":0,"parameterNumber":2,"parameterNumberName":"U-component_of_WINDS"},"data":[0,0,0,0,0,0,0,0,0,0,0,0,0,0,0,0,0,0,0,0,0,0,0,0,0,0,0,0,0,0,0,0,0,0,0,0,0,0,0,0,0,0,0,0,0,0,0,0,0,0,0,0,0,0,0,0,0,0,-4.3252,-4.3252,0,-4.3318,-4.3319,-4.332,-4.3213,-4.3209,-4.3206,-4.3202,-4.3272,-4.3277,-4.3282,0,0,0,0,0,0,0,0,0,0,0,0,0,-4.3032,-4.3037,-4.3251,-4.3252,-4.3253,-4.3318,-4.3319,-4.332,-4.3214,-4.3209,-4.3205,-4.32,-4.327,-4.3276,-4.3283,0,0,0,0,0,0,0,0,0,0,0,0,0,-4.3116,-4.3039,-4.3251,-4.3208,-4.3205,-4.3318,-4.3319,-4.332,-4.3215,-4.3209,-4.3203,-4.3198,-4.3268,-4.3276,-4.3283,-4.3442,0,0,-4.3308,-4.3311,0,0,0,0,0,0,0,0,-4.3112,-4.3124,-4.3213,-4.3211,-4.3208,-4.3251,-4.3267,-4.3361,-4.3216,-4.3211,-4.3202,-4.3196,-4.327,-4.3277,-4.3302,-4.3446,-4.3449,-4.3308,-4.3313,-4.3316,-4.3319,0,0,0,0,0,0,0,-4.3106,-4.3121,-4.3278,-4.3215,-4.3211,-4.3185,-4.3191,-4.3284,-4.327,-4.3211,-4.3203,-4.3213,-4.3267,-4.3294,-4.3302,-4.345,-4.3308,-4.3315,-4.332,-4.3323,-4.3727,-4.3733,0,0,0,0,0,0,-4.3105,-4.3117,-4.3276,-4.328,-4.3145,-4.3194,-4.32,-4.3243,-4.3269,-4.3268,-4.3217,-4.3207,-4.3283,-4.3293,-4.3305,-4.3493,-4.3316,-4.3324,-4.3328,-4.3721,-4.3728,-4.3735,0,0,0,0,0,0,-4.3101,-4.3121,-4.3273,-4.3196,-4.3214,-4.3203,-4.3252,-4.3247,-4.3274,-4.3274,-4.3271,-4.3248,-4.3279,-4.3293,-4.3409,-4.3494,-4.3327,-4.3335,-4.3714,-4.3723,-4.3732,-4.387,0,0,0,0,0,0,-4.3095,-4.312,-4.318,-4.3198,-4.3218,-4.3377,-4.3258,-4.3253,-4.3288,-4.3276,-4.3302,-4.3301,-4.3276,-4.3398,-4.3417,-4.3501,-4.3341,-4.3707,-4.3718,-4.3729,-4.3858,-4.3883,-4.3904,0,0,0,0,0,-4.3088,-4.3217,-4.3184,-4.3204,-4.3294,-4.3382,-4.3393,-4.3362,-4.3296,-4.3356,-4.3355,-4.33,-4.3481,-4.341,-4.3431,-4.3519,-4.3701,-4.3715,-4.3728,-4.3848,-4.3878,-4.3904,0,0,0,0,0,0,-4.321,-4.3219,-4.3182,-4.3321,-4.3351,-4.3364,-4.3439,-4.3395,-4.3445,-4.3432,-4.3391,-4.3398,-4.3522,-4.3532,-4.3453,-4.3674,-4.358,-4.3598,-4.3664,-4.3693,-4.3715,-4.3711,-4.3347,0,0,0,0,0,-4.3252,-4.3323,-4.3327,-4.3449,-4.3466,-4.3451,-4.3488,-4.3461,-4.3491,-4.3504,-4.3511,-4.3543,-4.3607,-4.365,-4.3708,-4.3858,-4.3862,-4.3929,-4.3952,-4.3971,-4.3988,-4.4068,-4.4098,-4.3779,-4.3779,-4.3779,0,0,-4.3342,-4.3356,-4.3403,-4.3474,-4.3494,-4.3569,-4.3462,-4.3545,-4.36,-4.3516,-4.3626,-4.3633,-4.3665,-4.3799,-4.3858,-4.381,-4.4076,-4.3988,-4.4003,-4.401,-4.4085,-4.4115,-4.4142,-4.3788,-4.3787,-4.3785,0,0,-4.3544,-4.3561,-4.3665,-4.3687,-4.3719,-4.3707,-4.3732,-4.3751,-4.3752,-4.3861,-4.38,-4.3864,-4.3975,-4.4001,-4.4028,-4.4238,-4.4189,-4.4258,-4.4379,-4.4458,-4.4483,-4.4505,-4.458,-4.4608,-4.4275,-4.4275,-4.4275,0,-4.3652,-4.3761,-4.3724,-4.3811,-4.3844,-4.3771,-4.3875,-4.3899,-4.3949,-4.3974,-4.3919,-4.4056,-4.4073,-4.4212,-4.4263,-4.4287,-4.4315,-4.4256,-4.4482,-4.4504,-4.4524,-4.4595,-4.4624,-4.4283,-4.4282,-4.4282,-4.4281,0,-4.3892,-4.3969,-4.4049,-4.4098,-4.414,-4.4236,-4.4213,-4.426,-4.4229,-4.4223,-4.4335,-4.4352,-4.4413,-4.4443,-4.4414,-4.4577,-4.4547,-4.4488,-4.4393,-4.4563,-4.463,-4.4657,-4.4295,-4.4292,-4.429,-4.4288,0,0,-4.4175,-4.4201,-4.4231,-4.4252,-4.4282,-4.434,-4.4432,-4.4491,-4.4532,-4.4569,-4.4645,-4.474,-4.4685,-4.4717,-4.469,-4.4758,-4.4924,-4.4691,-4.4691,-4.4735,-4.5106,-4.5151,-4.5183,-4.4891,-4.4896,-4.49,-4.5103,0,-4.4376,-4.4535,-4.4503,-4.4659,-4.4729,-4.466,-4.474,-4.4766,-4.4763,-4.4822,-4.4818,-4.4886,-4.4808,-4.4827,-4.4891,-4.489,-4.4998,-4.4875,-4.4962,-4.4966,-4.4958,-4.5218,-4.5266,-4.5458,-4.5129,-4.5133,-4.5137,0,-4.4633,-4.4678,-4.4841,-4.4858,-4.4887,-4.496,-4.5011,-4.5068,-4.5096,-4.5089,-4.5124,-4.5083,-4.5174,-4.5076,-4.5202,-4.5119,-4.5152,-4.5157,-4.5163,-4.5172,-4.5063,-4.5235,-4.5518,-4.5547,-4.5177,-4.5174,-4.5171,0,-4.4824,-4.4926,-4.5036,-4.5056,-4.5079,-4.5132,-4.5144,-4.5167,-4.5204,-4.5248,-4.5272,-4.5327,-4.5357,-4.54,-4.5375,-4.5306,-4.5506,-4.5405,-4.5503,-4.5504,-4.5549,-4.5547,-4.5843,-4.5569,-4.5568,-4.5568,-4.5567,0,-4.5053,-4.5156,-4.5122,-4.5191,-4.5303,-4.5265,-4.5378,-4.5381,-4.5402,-4.5469,-4.5412,-4.5476,-4.5439,-4.5501,-4.5482,-4.5589,-4.5603,-4.5599,-4.5594,-4.5606,-4.5606,-4.5628,-4.5615,-4.5575,-4.5574,-4.5572,-4.5571,0,-4.5287,-4.5268,-4.5384,-4.5395,-4.5401,-4.5483,-4.5493,-4.5557,-4.5547,-4.5634,-4.5652,-4.5639,-4.5708,-4.5687,-4.5762,-4.5749,-4.5885,-4.5862,-4.5876,-4.5871,-4.597,-4.5961,-4.6292,-4.6333,-4.6031,-4.6034,-4.6036,0,-4.5435,-4.5512,-4.5532,-4.5573,-4.5589,-4.5655,-4.5693,-4.5658,-4.5699,-4.5737,-4.5796,-4.586,-4.591,-4.6024,-4.6021,-4.6078,-4.6056,-4.6168,-4.6064,-4.6074,-4.6059,-4.6055,-4.6063,-4.6189,-4.6193,-4.6196,-4.6198,0,-4.5701,-4.5688,-4.5743,-4.5797,-4.5843,-4.5883,-4.5917,-4.5954,-4.5921,-4.5971,-4.6041,-4.6079,-4.6155,-4.622,-4.6272,-4.6283,-4.6236,-4.623,-4.6256,-4.627,-4.6275,-4.6275,-4.5934,-4.6223,-4.6221,-4.6219,-4.6217,-4.6216,-4.5897,-4.5962,-4.5986,-4.605,-4.6072,-4.6106,-4.6166,-4.6164,-4.6222,-4.6281,-4.6257,-4.6338,-4.6363,-4.6427,-4.6446,-4.6508,-4.6466,-4.6503,-4.6512,-4.6522,-4.6535,-4.6264,-4.6517,-4.6517,-4.6516,-4.6515,-4.6515,0,-4.6161,-4.6172,-4.6231,-4.6281,-4.6332,-4.6281,-4.6317,-4.6362,-4.6434,-4.6461,-4.6511,-4.6592,-4.6654,-4.6655,-4.6713,-4.6763,-4.6742,-4.6779,-4.6776,-4.678,-4.657,-4.6542,-4.6795,-4.6795,-4.6795,-4.6795,-4.6795,-4.6794,-4.6304,-4.6412,-4.6401,-4.6519,-4.6529,-4.6608,-4.6633,-4.6663,-4.6685,-4.6777,-4.6828,-4.6828,-4.6845,-4.6903,-4.6958,-4.6957,-4.6981,-4.7027,-4.7018,-4.6822,-4.6794,-4.6768,-4.6742,-4.7032,-4.7032,-4.7222,-4.7224,-4.7225]},{"header":{"parameterUnit":"m.s-1","parameterCategory":1,"la1":30.2991,"la2":30.254,"lo1":-89.0895,"lo2":-89.0444,"dy":0.0017,"dx":0.0017,"nx":28,"ny":28,"refTime":"2025-02-13T09:00:00:Z","depth":0,"parameterNumber":3,"parameterNumberName":"V-component_of_WINDS"},"data":[0,0,0,0,0,0,0,0,0,0,0,0,0,0,0,0,0,0,0,0,0,0,0,0,0,0,0,0,0,0,0,0,0,0,0,0,0,0,0,0,0,0,0,0,0,0,0,0,0,0,0,0,0,0,0,0,0,0,-6.5211,-6.5212,0,-6.5282,-6.5283,-6.5283,-6.5203,-6.52,-6.5197,-6.5194,-6.5262,-6.5267,-6.5271,0,0,0,0,0,0,0,0,0,0,0,0,0,-6.5,-6.5005,-6.5211,-6.5212,-6.5213,-6.5282,-6.5283,-6.5284,-6.5204,-6.52,-6.5196,-6.5193,-6.5261,-6.5266,-6.5272,0,0,0,0,0,0,0,0,0,0,0,0,0,-6.5084,-6.5006,-6.5211,-6.5181,-6.5179,-6.5282,-6.5283,-6.5284,-6.5205,-6.52,-6.5196,-6.5191,-6.5259,-6.5266,-6.5272,-6.5405,0,0,-6.5293,-6.5296,0,0,0,0,0,0,0,0,-6.5079,-6.5091,-6.5185,-6.5184,-6.5182,-6.5229,-6.5233,-6.5324,-6.5206,-6.5195,-6.5194,-6.5189,-6.5255,-6.5261,-6.5285,-6.5409,-6.5411,-6.5294,-6.5298,-6.5301,-6.5303,0,0,0,0,0,0,0,-6.5073,-6.5088,-6.5239,-6.5186,-6.5184,-6.5163,-6.5169,-6.525,-6.5249,-6.5195,-6.519,-6.52,-6.5253,-6.5278,-6.5286,-6.5412,-6.5294,-6.53,-6.5304,-6.5307,-6.5647,-6.5651,0,0,0,0,0,0,-6.5072,-6.5084,-6.5237,-6.5241,-6.5118,-6.517,-6.5178,-6.5218,-6.5248,-6.5248,-6.5203,-6.5196,-6.5268,-6.5278,-6.5288,-6.5444,-6.5301,-6.5308,-6.5312,-6.5642,-6.5648,-6.5653,0,0,0,0,0,0,-6.5067,-6.5086,-6.5234,-6.5161,-6.5178,-6.5179,-6.5225,-6.5222,-6.5247,-6.5254,-6.5253,-6.523,-6.5265,-6.5278,-6.5377,-6.5445,-6.5311,-6.5317,-6.5636,-6.5644,-6.565,-6.5759,0,0,0,0,0,0,-6.5062,-6.5085,-6.5137,-6.5163,-6.5182,-6.5324,-6.5229,-6.5227,-6.526,-6.5251,-6.5279,-6.5279,-6.5263,-6.5367,-6.5383,-6.5452,-6.5323,-6.563,-6.5639,-6.5648,-6.5749,-6.5769,-6.5786,0,0,0,0,0,-6.5055,-6.5164,-6.514,-6.5159,-6.5248,-6.5328,-6.5339,-6.5319,-6.5266,-6.5317,-6.5321,-6.5278,-6.5435,-6.5377,-6.5396,-6.5468,-6.5625,-6.5637,-6.5647,-6.5741,-6.5765,-6.5785,0,0,0,0,0,0,-6.5146,-6.5167,-6.5141,-6.5263,-6.5294,-6.5314,-6.5378,-6.5346,-6.5392,-6.5381,-6.5354,-6.536,-6.5465,-6.5476,-6.5412,-6.5597,-6.5521,-6.5536,-6.5586,-6.5609,-6.5627,-6.5622,-6.5328,0,0,0,0,0,-6.518,-6.5245,-6.526,-6.5366,-6.5383,-6.5378,-6.5412,-6.5395,-6.5426,-6.5438,-6.5449,-6.548,-6.5535,-6.5573,-6.5625,-6.575,-6.5754,-6.5808,-6.5827,-6.5842,-6.5855,-6.592,-6.5944,-6.5689,-6.5689,-6.5689,0,0,-6.5252,-6.5271,-6.5314,-6.5384,-6.5407,-6.5473,-6.539,-6.5464,-6.5512,-6.5449,-6.5543,-6.5552,-6.5583,-6.5696,-6.5746,-6.5708,-6.5926,-6.5856,-6.5868,-6.5873,-6.5934,-6.5958,-6.5979,-6.5696,-6.5695,-6.5694,0,0,-6.5415,-6.5438,-6.5528,-6.5552,-6.5587,-6.5583,-6.5605,-6.563,-6.5634,-6.5728,-6.5682,-6.5737,-6.5835,-6.5859,-6.5884,-6.6055,-6.6016,-6.6073,-6.6169,-6.6233,-6.6253,-6.627,-6.633,-6.6352,-6.6086,-6.6086,-6.6086,0,-6.5499,-6.5599,-6.5578,-6.5655,-6.5686,-6.5633,-6.5723,-6.5747,-6.5797,-6.5818,-6.5776,-6.5896,-6.5914,-6.603,-6.6072,-6.6094,-6.6116,-6.6069,-6.6252,-6.6269,-6.6285,-6.6342,-6.6365,-6.6093,-6.6092,-6.6091,-6.6091,0,-6.5699,-6.5769,-6.5837,-6.5888,-6.5927,-6.601,-6.5999,-6.604,-6.6019,-6.6019,-6.6114,-6.6133,-6.6187,-6.6214,-6.6193,-6.6327,-6.6302,-6.6256,-6.618,-6.6317,-6.6369,-6.6391,-6.6102,-6.61,-6.6098,-6.6096,0,0,-6.5923,-6.5961,-6.5986,-6.6008,-6.6042,-6.6095,-6.6174,-6.6228,-6.6263,-6.6299,-6.6364,-6.6447,-6.6404,-6.6433,-6.6414,-6.647,-6.6603,-6.6417,-6.6417,-6.645,-6.6749,-6.6783,-6.6808,-6.6577,-6.6582,-6.6585,-6.6746,0,-6.6086,-6.6226,-6.6209,-6.6341,-6.6404,-6.6354,-6.6423,-6.645,-6.6452,-6.6503,-6.6504,-6.6563,-6.6503,-6.652,-6.6573,-6.6576,-6.6662,-6.6564,-6.6635,-6.6638,-6.6628,-6.6836,-6.6872,-6.7023,-6.6766,-6.677,-6.6772,0,-6.6296,-6.6341,-6.648,-6.6504,-6.6529,-6.6592,-6.6639,-6.669,-6.6719,-6.6716,-6.6747,-6.6718,-6.6795,-6.6718,-6.6822,-6.6756,-6.6783,-6.6789,-6.6794,-6.6799,-6.6713,-6.6846,-6.7071,-6.7094,-6.6805,-6.6802,-6.68,0,-6.6444,-6.6538,-6.6634,-6.6654,-6.6684,-6.6729,-6.6743,-6.6768,-6.6801,-6.6842,-6.6862,-6.6911,-6.6938,-6.6975,-6.6959,-6.6905,-6.7066,-6.6988,-6.7064,-6.7065,-6.71,-6.7098,-6.7332,-6.712,-6.7119,-6.7119,-6.7119,0,-6.6628,-6.6715,-6.67,-6.6759,-6.6854,-6.6832,-6.6926,-6.6933,-6.6956,-6.7013,-6.6972,-6.7027,-6.7003,-6.7055,-6.7043,-6.713,-6.7142,-6.714,-6.7136,-6.7144,-6.7144,-6.7161,-6.715,-6.7125,-6.7124,-6.7123,-6.7121,0,-6.6809,-6.6803,-6.6903,-6.6924,-6.6931,-6.7,-6.7016,-6.7069,-6.7067,-6.714,-6.7156,-6.7153,-6.7212,-6.72,-6.7264,-6.7256,-6.7365,-6.7348,-6.7356,-6.7352,-6.7428,-6.7421,-6.7681,-6.7713,-6.7481,-6.7483,-6.7485,0,-6.6926,-6.6992,-6.702,-6.7056,-6.7074,-6.7133,-6.7167,-6.7146,-6.7183,-6.722,-6.7269,-6.7325,-6.7368,-6.7464,-6.7466,-6.7515,-6.7498,-6.7586,-6.7505,-6.751,-6.7498,-6.7494,-6.7499,-6.7602,-6.7604,-6.7606,-6.7608,0,-6.7135,-6.7128,-6.718,-6.723,-6.7272,-6.731,-6.7344,-6.7375,-6.7358,-6.74,-6.7461,-6.7495,-6.7561,-6.7616,-6.7661,-6.7673,-6.7637,-6.7634,-6.7654,-6.7662,-6.7663,-6.7662,-6.7399,-6.7628,-6.7626,-6.7624,-6.7623,-6.7622,-6.7287,-6.7342,-6.737,-6.7428,-6.7452,-6.7484,-6.7535,-6.754,-6.7591,-6.7644,-6.7628,-6.7697,-6.7722,-6.7779,-6.7796,-6.7848,-6.7814,-6.7844,-6.7851,-6.7858,-6.7867,-6.7656,-6.7856,-6.7855,-6.7855,-6.7854,-6.7854,0,-6.7492,-6.7508,-6.7561,-6.761,-6.7655,-6.7619,-6.7655,-6.7694,-6.7755,-6.7783,-6.7826,-6.7895,-6.7948,-6.7954,-6.8003,-6.8043,-6.8028,-6.8056,-6.8053,-6.8056,-6.7895,-6.7872,-6.8068,-6.8068,-6.8068,-6.8068,-6.8068,-6.8068,-6.7604,-6.7696,-6.7693,-6.7795,-6.7809,-6.7877,-6.79,-6.7928,-6.795,-6.8029,-6.8073,-6.8077,-6.8095,-6.8145,-6.8191,-6.8191,-6.8211,-6.8246,-6.8239,-6.8089,-6.8067,-6.8047,-6.8025,-6.825,-6.8251,-6.8396,-6.8397,-6.8398]}]]